Regional Weather Roundup
Issued by NWS

Home | Current Version | Previous Version | Graphics & Text | Print | Product List | Glossary On
Versions: 1 2 3 4 5 6 7 8 9 10 11 12 13 14 15 16 17 18 19 20 21 22 23 24 25 26 27 28 29 30 31 32 33 34 35 36 37 38 39 40 41 42 43 44 45 46 47 48 49 50
000
ASUS43 KFSD 280002
RWRSD

WEATHER ROUNDUP FOR SOUTH DAKOTA
NATIONAL WEATHER SERVICE SIOUX FALLS SD
700 PM CDT MON MAR 27 2017

NOTE: "FAIR" INDICATES FEW OR NO CLOUDS BELOW 12,000 FEET WITH NO
SIGNIFICANT WEATHER AND/OR OBSTRUCTIONS TO VISIBILITY.


SDZ001>005-009-010-012>017-280100-
NORTHWEST AND NORTH CENTRAL SOUTH DAKOTA

CITY           SKY/WX    TMP DP  RH WIND       PRES   REMARKS
BUFFALO          N/A     59  30  33 E12       29.80R
FAITH            N/A     56  37  49 MISG      29.87R
MOBRIDGE       MOSUNNY   58  35  42 SE10      29.88S
$$

SDZ012>016-024>037-041>051-057-063-072>074-280100-
SOUTHWEST AND SOUTH CENTRAL SOUTH DAKOTA

CITY           SKY/WX    TMP DP  RH WIND       PRES   REMARKS
RAPID CTY ARPT MOSUNNY   58  35  42 E5        29.84R
PIERRE         SUNNY     59  29  31 E10       29.87F
CUSTER         SUNNY     48  32  53 E10       29.86S
ELLSWORTH AFB  SUNNY     57  36  45 E6        29.84R
PHILIP         PTSUNNY   60  36  40 E14       29.85R
PINE RIDGE     SUNNY     62  37  39 E15       29.81R
SPEARFISH      FAIR      52  39  62 S10       29.86R
WINNER         CLOUDY    61  38  42 E7        29.87R
$$

SDZ004>011-016>023-039-040-280100-
NORTHEAST SOUTH DAKOTA

CITY           SKY/WX    TMP DP  RH WIND       PRES   REMARKS
ABERDEEN       CLOUDY    56  35  45 SE8       29.94R
WATERTOWN      CLOUDY    53  34  48 E7        29.94R
BROOKINGS      CLEAR     54  35  48 E7        29.94
SISSETON         N/A     56  39  53 SE5       29.95R
$$

SDZ017-020-022-023-036>040-048>070-280100-
SOUTHEAST SOUTH DAKOTA

CITY           SKY/WX    TMP DP  RH WIND       PRES   REMARKS
SIOUX FALLS    MOCLDY    55  40  56 SE9       29.94R
HURON          CLOUDY    58  35  42 E6        29.92R
MITCHELL       CLEAR     60  34  37 S5        29.92S
YANKTON        CLEAR     55  37  50 SE7       29.93R
$$

ABBREVIATIONS USED IN REMARKS
   TC - TEMPERATURE IN CELSIUS
  WCI - WIND CHILL INDEX
   HX - HEAT INDEX
  VSB - VISIBILITY





USA.gov is the U.S. government's official web portal to all federal, state and local government web resources and services.